STARLINK-35944

Last updated on Fri Dec 19 2025 00:02:08 GMT+0000 (Coordinated Universal Time)

1 66928U 25286D 25352.58336806 -.01261284 00000+0 -66551-2 0 9990 2 66928 53.1563 21.0753 0001010 60.8028 44.3066 15.82641162 2933
UTC large
Height (km)
Speed (km/s)
/
Latitude / Longitude
Inclination (degrees)
Orbital Period (minutes)
Azimuth
Elevation
Range (km)
Doppler Factor

Next 0 passes for location: London (51.5072 / 0.1276)

Sorry there are no passes over London.